Airfield :







YOU CAN JOIN US ON...

 
LOGIN :

Register | Disclaimer

   EN    FR    IT 

 









Legend :    VFR   Marginal VFR   IFR   Intensive IFR   Very Intensive IFR
Visi :
Ceiling :
>= 8 km
>= 3000ft
5 to 8 km
1000 to 3000 ft
1500m to 5 km
500 to 1000 ft
800 to 1500m
200 to 500 ft
< 800m
< 200 ft
Symbols :   Thunderstorms  Fog  Heavy snow  Heavy precipitations  Wind > 20 kt






- Airport Elevation : 48 ft
- IATA code : REK


BIRK - Reykjavik

CURRENT METAR :
  • 180100Z 00000KT 9999 -RA FW030 OVC040 07/04 Q1008

EXPIRED METARs :
  • 180000Z 36006KT 9999 -RA FEW030 OVC041 07/04 Q1008
  • 172300Z VRB02KT 9999 -SHRA SCT032 BKN043 OVC050 08/03 Q1008

TAF TAF BIRK
Valid from the 18 at 00:00 until the 19 at 00:00 UTC


172202Z 1800/1900 35007KT 9999 BKN028 TX10/1814Z TN05/1804Z
TEMPO 1800/1900 -RA BKN018



MET'MAP, your aeronautical weather chart ! - Copyright ORBIFLY December 2007 - Disclaimer

ORBIFLY MET'MAP TEAM :

Programming & Development : Alexandra Zaïnal
Concept & original design : Baudouin d'Aumeries
Assistance for programming : Marc-Olivier Méhu
Technical & hardware support : Manuel Goepfert

Contact : metmap@orbifly.com




SOURCES & CREDITS :

   NOAA